project_name,platform_name,Date_(yyyymmdd),Time_(hh24miss),beacon_ID,latitude_DD,longitude_DD,altitude_m,altitude_result_value_type,speed_m_s,speed_result_value_type,direction_degrees,direction_result_value_type,fix,sat
BaySys,Amundsen,2007-11-24,22:47:24,300034012813320,73.8287,-127.4475,49.4146,Actual,,Calculated,321.1400,Calculated,1,5
BaySys,Amundsen,2007-11-25,00:46:24,300034012813320,73.8192,-127.4584,-7.5610,Actual,,Calculated,196.7500,Calculated,1,7
BaySys,Amundsen,2007-11-25,10:46:42,300034012813320,73.7749,-127.4929,6.0038,Actual,,Calculated,164.6200,Calculated,1,6
BaySys,Amundsen,2007-11-25,12:47:05,300034012813320,73.7658,-127.4962,3.4321,Actual,,Calculated,168.0900,Calculated,1,11
BaySys,Amundsen,2007-11-25,14:46:48,300034012813320,73.7568,-127.4959,-0.4798,Actual,,Calculated,226.6300,Calculated,1,7
BaySys,Amundsen,2007-11-25,16:46:35,300034012813320,73.7483,-127.4945,4.0438,Actual,,Calculated,158.3300,Calculated,1,8
BaySys,Amundsen,2007-11-25,18:46:36,300034012813320,73.7410,-127.4934,-3.6786,Actual,,Calculated,175.0700,Calculated,1,7
BaySys,Amundsen,2007-11-25,20:46:43,300034012813320,73.7344,-127.4924,-4.4807,Actual,,Calculated,157.6300,Calculated,1,7
BaySys,Amundsen,2007-11-25,22:46:42,300034012813320,73.7277,-127.4898,6.7030,Actual,,Calculated,204.3000,Calculated,1,10
BaySys,Amundsen,2007-11-26,00:47:00,300034012813320,73.7198,-127.4841,-4.1015,Actual,,Calculated,167.3200,Calculated,1,6
BaySys,Amundsen,2007-11-26,02:47:00,300034012813320,73.7108,-127.4796,8.3117,Actual,,Calculated,137.5600,Calculated,1,7
BaySys,Amundsen,2007-11-26,04:46:52,300034012813320,73.7014,-127.4788,2.8092,Actual,,Calculated,169.9700,Calculated,1,6
BaySys,Amundsen,2007-11-26,06:47:23,300034012813320,73.6926,-127.4820,2.1784,Actual,,Calculated,18.0300,Calculated,1,8
BaySys,Amundsen,2007-11-26,08:47:29,300034012813320,73.6842,-127.4871,-4.1933,Actual,,Calculated,192.1600,Calculated,1,8
BaySys,Amundsen,2007-11-26,10:47:02,300034012813320,73.6755,-127.4920,-8.2306,Actual,,Calculated,162.1300,Calculated,1,7
BaySys,Amundsen,2007-11-26,12:47:35,300034012813320,73.6655,-127.4966,-0.8108,Actual,,Calculated,72.0500,Calculated,1,10
BaySys,Amundsen,2007-11-26,14:47:14,300034012813320,73.6550,-127.5009,-2.6869,Actual,,Calculated,5.2300,Calculated,1,7
BaySys,Amundsen,2007-11-26,16:47:06,300034012813320,73.6448,-127.5066,1.1216,Actual,,Calculated,174.3800,Calculated,1,10
BaySys,Amundsen,2007-11-26,18:47:35,300034012813320,73.6356,-127.5150,-0.1955,Actual,,Calculated,234.7800,Calculated,1,8
BaySys,Amundsen,2007-11-26,20:47:35,300034012813320,73.6273,-127.5235,-6.1707,Actual,,Calculated,194.6400,Calculated,1,7
BaySys,Amundsen,2007-11-26,22:47:08,300034012813320,73.6190,-127.5299,44.2742,Actual,,Calculated,221.1900,Calculated,1,8
BaySys,Amundsen,2007-11-27,18:58:33,300034012813320,73.5191,-127.5534,-1465.2500,Actual,,Calculated,218.3500,Calculated,1,5
BaySys,Amundsen,2007-11-28,00:57:35,300034012813320,73.4916,-127.5602,0.3580,Actual,,Calculated,290.5500,Calculated,1,7
BaySys,Amundsen,2007-11-28,02:57:30,300034012813320,73.4837,-127.5495,-3.3249,Actual,,Calculated,171.3100,Calculated,1,12
BaySys,Amundsen,2007-11-28,04:57:03,300034012813320,73.4767,-127.5384,-0.6273,Actual,,Calculated,142.8900,Calculated,1,9
BaySys,Amundsen,2007-11-28,06:57:35,300034012813320,73.4721,-127.5237,-3.2807,Actual,,Calculated,222.6500,Calculated,1,9
BaySys,Amundsen,2007-11-28,08:57:24,300034012813320,73.4698,-127.5009,-1.5567,Actual,,Calculated,342.9700,Calculated,1,5
BaySys,Amundsen,2007-11-28,10:57:16,300034012813320,73.4674,-127.4667,0.8716,Actual,,Calculated,143.2200,Calculated,1,8
BaySys,Amundsen,2007-11-28,12:57:25,300034012813320,73.4625,-127.4244,1.3081,Actual,,Calculated,169.6700,Calculated,1,5
BaySys,Amundsen,2007-11-28,14:57:53,300034012813320,73.4557,-127.3885,-15.2362,Actual,,Calculated,132.3300,Calculated,1,11
BaySys,Amundsen,2007-11-28,16:57:38,300034012813320,73.4487,-127.3645,3.4559,Actual,,Calculated,173.5000,Calculated,1,8
BaySys,Amundsen,2007-11-28,18:57:27,300034012813320,73.4418,-127.3494,7.3238,Actual,,Calculated,163.2200,Calculated,1,9
BaySys,Amundsen,2007-11-28,20:57:27,300034012813320,73.4343,-127.3390,-3.8419,Actual,,Calculated,85.8400,Calculated,1,10
BaySys,Amundsen,2007-11-28,22:57:59,300034012813320,73.4241,-127.3340,-3.4009,Actual,,Calculated,74.6500,Calculated,1,13
BaySys,Amundsen,2007-11-29,00:57:48,300034012813320,73.4103,-127.3384,-4.6453,Actual,,Calculated,190.2100,Calculated,1,11
BaySys,Amundsen,2007-11-29,02:58:05,300034012813320,73.3949,-127.3505,2.4027,Actual,,Calculated,242.2900,Calculated,1,11
BaySys,Amundsen,2007-11-29,04:58:05,300034012813320,73.3798,-127.3629,-2.6463,Actual,,Calculated,161.0200,Calculated,1,10
BaySys,Amundsen,2007-11-29,06:58:05,300034012813320,73.3636,-127.3644,2.7020,Actual,,Calculated,130.5800,Calculated,1,10
BaySys,Amundsen,2007-11-29,08:57:37,300034012813320,73.3428,-127.3548,-4.4654,Actual,,Calculated,202.5400,Calculated,1,12
BaySys,Amundsen,2007-11-29,10:57:40,300034012813320,73.3172,-127.3624,2.8470,Actual,,Calculated,190.9400,Calculated,1,9
BaySys,Amundsen,2007-11-29,12:58:05,300034012813320,73.2939,-127.4014,3.5507,Actual,,Calculated,228.3300,Calculated,1,10
BaySys,Amundsen,2007-11-29,14:57:55,300034012813320,73.2761,-127.4464,0.6445,Actual,,Calculated,269.4800,Calculated,1,7
BaySys,Amundsen,2007-11-29,16:57:45,300034012813320,73.2605,-127.4819,-6.0442,Actual,,Calculated,217.1300,Calculated,1,7
BaySys,Amundsen,2007-11-29,18:58:23,300034012813320,73.2437,-127.5005,-8.8237,Actual,,Calculated,180.4400,Calculated,1,10
BaySys,Amundsen,2007-11-29,20:58:08,300034012813320,73.2233,-127.5139,-1.0713,Actual,,Calculated,266.6500,Calculated,1,11
BaySys,Amundsen,2007-11-29,22:57:58,300034012813320,73.2035,-127.5411,16.1558,Actual,,Calculated,210.5500,Calculated,1,13
BaySys,Amundsen,2007-11-30,00:58:23,300034012813320,73.1879,-127.5728,-9.4746,Actual,,Calculated,196.6300,Calculated,1,12
BaySys,Amundsen,2007-11-30,02:58:02,300034012813320,73.1716,-127.5977,98.2154,Actual,,Calculated,206.5800,Calculated,1,8
BaySys,Amundsen,2007-11-30,04:58:29,300034012813320,73.1523,-127.6140,-2.0168,Actual,,Calculated,219.1100,Calculated,1,10
BaySys,Amundsen,2007-11-30,06:58:06,300034012813320,73.1311,-127.6337,-4.1722,Actual,,Calculated,174.3000,Calculated,1,10
BaySys,Amundsen,2007-11-30,08:58:08,300034012813320,73.1079,-127.6564,-0.3342,Actual,,Calculated,195.5900,Calculated,1,8
BaySys,Amundsen,2007-11-30,10:58:35,300034012813320,73.0850,-127.6834,3.1204,Actual,,Calculated,220.4900,Calculated,1,11
BaySys,Amundsen,2007-11-30,12:58:08,300034012813320,73.0645,-127.7122,-2.6645,Actual,,Calculated,198.2600,Calculated,1,11
BaySys,Amundsen,2007-11-30,14:58:11,300034012813320,73.0467,-127.7383,-6.6651,Actual,,Calculated,179.8100,Calculated,1,10
BaySys,Amundsen,2007-11-30,16:58:35,300034012813320,73.0292,-127.7553,0.8052,Actual,,Calculated,189.7400,Calculated,1,10
BaySys,Amundsen,2007-11-30,18:58:42,300034012813320,73.0106,-127.7670,-9.3439,Actual,,Calculated,185.7400,Calculated,1,10
BaySys,Amundsen,2007-11-30,20:58:29,300034012813320,72.9903,-127.7783,-2.8983,Actual,,Calculated,217.5100,Calculated,1,11
BaySys,Amundsen,2007-11-30,22:58:59,300034012813320,72.9698,-127.7982,0.2543,Actual,,Calculated,171.3100,Calculated,1,14
BaySys,Amundsen,2007-12-01,00:58:49,300034012813320,72.9510,-127.8236,2.7860,Actual,,Calculated,200.4200,Calculated,1,13
BaySys,Amundsen,2007-12-01,02:58:28,300034012813320,72.9336,-127.8477,-6.1737,Actual,,Calculated,184.0400,Calculated,1,12
BaySys,Amundsen,2007-12-01,04:59:05,300034012813320,72.9170,-127.8679,-2.9397,Actual,,Calculated,196.5400,Calculated,1,9
BaySys,Amundsen,2007-12-01,06:58:32,300034012813320,72.9012,-127.8899,-3.4503,Actual,,Calculated,199.9900,Calculated,1,9
BaySys,Amundsen,2007-12-01,08:58:37,300034012813320,72.8865,-127.9123,-2.6830,Actual,,Calculated,194.4200,Calculated,1,10
BaySys,Amundsen,2007-12-01,10:59:05,300034012813320,72.8715,-127.9400,1.8201,Actual,,Calculated,229.0300,Calculated,1,12
BaySys,Amundsen,2007-12-01,12:58:54,300034012813320,72.8570,-127.9706,-0.7923,Actual,,Calculated,193.5300,Calculated,1,7
BaySys,Amundsen,2007-12-01,14:58:43,300034012813320,72.8435,-128.0047,-6.5684,Actual,,Calculated,202.7100,Calculated,1,10
BaySys,Amundsen,2007-12-01,16:59:05,300034012813320,72.8308,-128.0345,-1.2382,Actual,,Calculated,212.5300,Calculated,1,8
BaySys,Amundsen,2007-12-01,18:58:46,300034012813320,72.8183,-128.0627,-12.0491,Actual,,Calculated,213.4200,Calculated,1,7
BaySys,Amundsen,2007-12-01,20:58:50,300034012813320,72.8078,-128.0944,-3.2022,Actual,,Calculated,238.0100,Calculated,1,9
BaySys,Amundsen,2007-12-01,22:59:05,300034012813320,72.7990,-128.1342,-7.9310,Actual,,Calculated,24.0200,Calculated,1,6
BaySys,Amundsen,2007-12-02,00:58:57,300034012813320,72.7901,-128.1720,-4.9874,Actual,,Calculated,209.5400,Calculated,1,10
BaySys,Amundsen,2007-12-02,02:59:23,300034012813320,72.7808,-128.2072,-4.2676,Actual,,Calculated,227.2600,Calculated,1,10
BaySys,Amundsen,2007-12-02,04:59:24,300034012813320,72.7722,-128.2321,5.1391,Actual,,Calculated,218.5400,Calculated,1,10
BaySys,Amundsen,2007-12-02,06:58:59,300034012813320,72.7642,-128.2492,11.6983,Actual,,Calculated,211.8500,Calculated,1,8
BaySys,Amundsen,2007-12-02,08:59:35,300034012813320,72.7559,-128.2636,-6.0652,Actual,,Calculated,220.0100,Calculated,1,9
BaySys,Amundsen,2007-12-02,10:59:35,300034012813320,72.7476,-128.2770,2.3296,Actual,,Calculated,222.3800,Calculated,1,12
BaySys,Amundsen,2007-12-02,12:59:35,300034012813320,72.7389,-128.2900,2.2606,Actual,,Calculated,107.8700,Calculated,1,11
BaySys,Amundsen,2007-12-02,14:59:20,300034012813320,72.7294,-128.3025,-2.8477,Actual,,Calculated,220.0300,Calculated,1,6
BaySys,Amundsen,2007-12-02,16:59:06,300034012813320,72.7197,-128.3130,1.1937,Actual,,Calculated,204.0500,Calculated,1,7
BaySys,Amundsen,2007-12-02,18:59:35,300034012813320,72.7105,-128.3208,-1.4985,Actual,,Calculated,178.4100,Calculated,1,10
BaySys,Amundsen,2007-12-02,20:59:35,300034012813320,72.7017,-128.3286,-1.6849,Actual,,Calculated,162.6700,Calculated,1,9
BaySys,Amundsen,2007-12-02,22:59:10,300034012813320,72.6930,-128.3382,-13.6595,Actual,,Calculated,218.9200,Calculated,1,9
BaySys,Amundsen,2007-12-03,00:59:24,300034012813320,72.6842,-128.3488,-1.5002,Actual,,Calculated,282.1300,Calculated,1,8
BaySys,Amundsen,2007-12-03,02:59:35,300034012813320,72.6754,-128.3585,-2.8419,Actual,,Calculated,197.1000,Calculated,1,6
BaySys,Amundsen,2007-12-03,04:59:23,300034012813320,72.6669,-128.3666,-3.2185,Actual,,Calculated,125.0600,Calculated,1,9
BaySys,Amundsen,2007-12-03,06:59:20,300034012813320,72.6589,-128.3738,-7.7159,Actual,,Calculated,192.0100,Calculated,1,10
BaySys,Amundsen,2007-12-03,08:59:53,300034012813320,72.6517,-128.3805,-4.9660,Actual,,Calculated,199.5500,Calculated,1,10
BaySys,Amundsen,2007-12-03,10:59:48,300034012813320,72.6456,-128.3875,2.7394,Actual,,Calculated,200.7800,Calculated,1,11
BaySys,Amundsen,2007-12-03,12:59:25,300034012813320,72.6394,-128.3952,-1.7831,Actual,,Calculated,193.4200,Calculated,1,12
BaySys,Amundsen,2007-12-03,14:59:37,300034012813320,72.6325,-128.3998,-3.7210,Actual,,Calculated,163.1500,Calculated,1,11
BaySys,Amundsen,2007-12-03,16:59:37,300034012813320,72.6248,-128.3996,-1.9298,Actual,,Calculated,126.9300,Calculated,1,9
BaySys,Amundsen,2007-12-03,19:00:05,300034012813320,72.6168,-128.3967,-5.6042,Actual,,Calculated,176.7400,Calculated,1,10
BaySys,Amundsen,2007-12-03,21:00:02,300034012813320,72.6095,-128.3925,6.5342,Actual,,Calculated,147.2300,Calculated,1,12
BaySys,Amundsen,2007-12-03,22:59:37,300034012813320,72.6026,-128.3899,-14.6218,Actual,,Calculated,190.4000,Calculated,1,10
BaySys,Amundsen,2007-12-04,01:00:05,300034012813320,72.5944,-128.3884,-4.6563,Actual,,Calculated,272.9600,Calculated,1,11
BaySys,Amundsen,2007-12-04,03:00:00,300034012813320,72.5854,-128.3863,1.1725,Actual,,Calculated,158.0500,Calculated,1,5
BaySys,Amundsen,2007-12-04,04:59:51,300034012813320,72.5753,-128.3826,1.8813,Actual,,Calculated,180.4800,Calculated,1,6
BaySys,Amundsen,2007-12-04,07:00:29,300034012813320,72.5650,-128.3769,-7.4228,Actual,,Calculated,194.0300,Calculated,1,10
BaySys,Amundsen,2007-12-04,09:00:35,300034012813320,72.5542,-128.3763,6.8528,Actual,,Calculated,232.0100,Calculated,1,10
BaySys,Amundsen,2007-12-04,10:59:57,300034012813320,72.5439,-128.3812,0.2239,Actual,,Calculated,242.7600,Calculated,1,12
BaySys,Amundsen,2007-12-04,12:59:58,300034012813320,72.5338,-128.3915,-4.7321,Actual,,Calculated,192.0500,Calculated,1,9
BaySys,Amundsen,2007-12-04,15:00:24,300034012813320,72.5243,-128.4038,0.6163,Actual,,Calculated,200.7800,Calculated,1,9
BaySys,Amundsen,2007-12-04,17:00:04,300034012813320,72.5151,-128.4125,2.4134,Actual,,Calculated,178.2000,Calculated,1,6
BaySys,Amundsen,2007-12-04,19:00:35,300034012813320,72.5051,-128.4170,-4.1274,Actual,,Calculated,324.2200,Calculated,1,8
BaySys,Amundsen,2007-12-04,21:00:30,300034012813320,72.4950,-128.4179,-1.4756,Actual,,Calculated,183.4800,Calculated,1,9
BaySys,Amundsen,2007-12-04,23:00:12,300034012813320,72.4848,-128.4209,-10.1037,Actual,,Calculated,173.3700,Calculated,1,12
BaySys,Amundsen,2007-12-05,01:00:35,300034012813320,72.4748,-128.4282,-6.4662,Actual,,Calculated,266.6600,Calculated,1,13
BaySys,Amundsen,2007-12-05,03:00:19,300034012813320,72.4667,-128.4347,-4.7188,Actual,,Calculated,199.9500,Calculated,1,5
BaySys,Amundsen,2007-12-05,05:00:20,300034012813320,72.4578,-128.4344,23.9304,Actual,,Calculated,196.5800,Calculated,1,9
BaySys,Amundsen,2007-12-05,07:00:25,300034012813320,72.4462,-128.4315,-5.9878,Actual,,Calculated,169.1100,Calculated,1,11
BaySys,Amundsen,2007-12-05,09:00:59,300034012813320,72.4336,-128.4289,-6.1313,Actual,,Calculated,178.3200,Calculated,1,10
BaySys,Amundsen,2007-12-05,11:00:24,300034012813320,72.4219,-128.4270,-1.3667,Actual,,Calculated,167.4600,Calculated,1,10
BaySys,Amundsen,2007-12-05,13:00:59,300034012813320,72.4110,-128.4244,-4.9262,Actual,,Calculated,180.8800,Calculated,1,10
BaySys,Amundsen,2007-12-05,15:00:37,300034012813320,72.4014,-128.4223,-2.5086,Actual,,Calculated,82.0100,Calculated,1,6
BaySys,Amundsen,2007-12-05,17:00:34,300034012813320,72.3925,-128.4163,-0.8947,Actual,,Calculated,180.4500,Calculated,1,9
BaySys,Amundsen,2007-12-05,19:01:05,300034012813320,72.3827,-128.4085,-8.0673,Actual,,Calculated,166.5900,Calculated,1,8
BaySys,Amundsen,2007-12-05,21:01:05,300034012813320,72.3724,-128.4017,-8.3859,Actual,,Calculated,200.7000,Calculated,1,9
BaySys,Amundsen,2007-12-05,23:00:39,300034012813320,72.3616,-128.3959,-10.4056,Actual,,Calculated,184.0200,Calculated,1,10
BaySys,Amundsen,2007-12-06,01:01:05,300034012813320,72.3501,-128.3978,-13.8171,Actual,,Calculated,278.4400,Calculated,1,7
BaySys,Amundsen,2007-12-06,03:00:40,300034012813320,72.3394,-128.4068,4.6011,Actual,,Calculated,219.3600,Calculated,1,6
BaySys,Amundsen,2007-12-06,05:00:49,300034012813320,72.3295,-128.4161,2.0709,Actual,,Calculated,212.8300,Calculated,1,9
BaySys,Amundsen,2007-12-06,07:00:48,300034012813320,72.3191,-128.4206,-8.0272,Actual,,Calculated,199.7700,Calculated,1,6
BaySys,Amundsen,2007-12-06,09:01:23,300034012813320,72.3062,-128.4200,-6.0894,Actual,,Calculated,114.8500,Calculated,1,8
BaySys,Amundsen,2007-12-06,11:01:14,300034012813320,72.2915,-128.4209,5.5128,Actual,,Calculated,147.0500,Calculated,1,10
BaySys,Amundsen,2007-12-06,13:00:54,300034012813320,72.2779,-128.4317,2.0257,Actual,,Calculated,225.2700,Calculated,1,9
BaySys,Amundsen,2007-12-06,15:01:29,300034012813320,72.2682,-128.4506,-3.7625,Actual,,Calculated,250.6100,Calculated,1,10
BaySys,Amundsen,2007-12-06,17:01:18,300034012813320,72.2634,-128.4679,0.7285,Actual,,Calculated,301.0500,Calculated,1,8
BaySys,Amundsen,2007-12-06,19:01:07,300034012813320,72.2591,-128.4721,51.0941,Actual,,Calculated,167.4000,Calculated,1,9
BaySys,Amundsen,2007-12-06,21:01:35,300034012813320,72.2515,-128.4681,-6.2879,Actual,,Calculated,67.4700,Calculated,1,9
BaySys,Amundsen,2007-12-06,23:01:35,300034012813320,72.2416,-128.4663,-10.4245,Actual,,Calculated,148.9400,Calculated,1,11
BaySys,Amundsen,2007-12-07,01:01:12,300034012813320,72.2314,-128.4736,4.3246,Actual,,Calculated,186.0400,Calculated,1,11
BaySys,Amundsen,2007-12-07,03:01:35,300034012813320,72.2236,-128.4878,-3.7640,Actual,,Calculated,273.4200,Calculated,1,5
BaySys,Amundsen,2007-12-07,05:01:36,300034012813320,72.2182,-128.5014,-11.7067,Actual,,Calculated,278.0800,Calculated,1,8
BaySys,Amundsen,2007-12-07,07:01:20,300034012813320,72.2133,-128.5089,-3.1253,Actual,,Calculated,61.7100,Calculated,1,8
BaySys,Amundsen,2007-12-07,09:01:34,300034012813320,72.2067,-128.5091,-1.2603,Actual,,Calculated,191.6000,Calculated,1,12
BaySys,Amundsen,2007-12-07,11:01:25,300034012813320,72.1988,-128.5085,10.4750,Actual,,Calculated,191.3900,Calculated,1,10
BaySys,Amundsen,2007-12-07,13:01:53,300034012813320,72.1908,-128.5147,-0.9643,Actual,,Calculated,257.8500,Calculated,1,10
BaySys,Amundsen,2007-12-07,15:11:59,300034012813320,72.1846,-128.5306,6.2362,Actual,,Calculated,250.9500,Calculated,1,11
BaySys,Amundsen,2007-12-07,19:11:24,300034012813320,72.1782,-128.5602,-9.0744,Actual,,Calculated,215.3800,Calculated,1,8
BaySys,Amundsen,2007-12-07,21:11:27,300034012813320,72.1725,-128.5653,-10.2253,Actual,,Calculated,191.5600,Calculated,1,11
BaySys,Amundsen,2007-12-07,23:11:31,300034012813320,72.1648,-128.5714,88.6356,Actual,,Calculated,190.4000,Calculated,1,11
BaySys,Amundsen,2007-12-08,01:11:30,300034012813320,72.1559,-128.5831,-14.4055,Actual,,Calculated,197.3900,Calculated,1,11
BaySys,Amundsen,2007-12-08,03:11:34,300034012813320,72.1484,-128.6026,2.8896,Actual,,Calculated,291.1600,Calculated,1,8
BaySys,Amundsen,2007-12-08,05:12:05,300034012813320,72.1425,-128.6271,3.7271,Actual,,Calculated,288.9900,Calculated,1,9
BaySys,Amundsen,2007-12-08,07:11:41,300034012813320,72.1373,-128.6486,-7.5470,Actual,,Calculated,241.9200,Calculated,1,9
BaySys,Amundsen,2007-12-08,09:12:10,300034012813320,72.1307,-128.6632,7.9332,Actual,,Calculated,229.8700,Calculated,1,9
BaySys,Amundsen,2007-12-08,11:11:49,300034012813320,72.1226,-128.6773,0.1802,Actual,,Calculated,237.2900,Calculated,1,10
BaySys,Amundsen,2007-12-08,13:12:06,300034012813320,72.1149,-128.6986,-5.3752,Actual,,Calculated,224.9900,Calculated,1,10
BaySys,Amundsen,2007-12-08,15:11:49,300034012813320,72.1096,-128.7267,0.7540,Actual,,Calculated,285.4900,Calculated,1,10
BaySys,Amundsen,2007-12-08,17:12:29,300034012813320,72.1067,-128.7536,-4.1513,Actual,,Calculated,258.0800,Calculated,1,9
BaySys,Amundsen,2007-12-08,19:11:56,300034012813320,72.1036,-128.7743,14.6797,Actual,,Calculated,233.1100,Calculated,1,11
BaySys,Amundsen,2007-12-08,21:12:01,300034012813320,72.0981,-128.7900,-4.1481,Actual,,Calculated,262.5700,Calculated,1,9
BaySys,Amundsen,2007-12-08,23:12:02,300034012813320,72.0906,-128.8026,-7.3400,Actual,,Calculated,163.2000,Calculated,1,11
BaySys,Amundsen,2007-12-09,01:12:03,300034012813320,72.0824,-128.8187,-3.3444,Actual,,Calculated,252.9100,Calculated,1,11
BaySys,Amundsen,2007-12-09,03:12:24,300034012813320,72.0748,-128.8405,-20.7137,Actual,,Calculated,80.6900,Calculated,1,8
BaySys,Amundsen,2007-12-09,05:12:19,300034012813320,72.0687,-128.8653,-0.0620,Actual,,Calculated,240.0700,Calculated,1,9
BaySys,Amundsen,2007-12-09,07:12:14,300034012813320,72.0629,-128.8877,-3.3573,Actual,,Calculated,221.1300,Calculated,1,10
BaySys,Amundsen,2007-12-09,09:12:38,300034012813320,72.0558,-128.9046,-0.2872,Actual,,Calculated,209.3100,Calculated,1,11
BaySys,Amundsen,2007-12-09,11:12:13,300034012813320,72.0475,-128.9204,10.9182,Actual,,Calculated,172.0000,Calculated,1,7
BaySys,Amundsen,2007-12-09,13:20:14,300034012813320,72.0383,-128.9416,-4.4454,Actual,,Calculated,296.2800,Calculated,1,12
BaySys,Amundsen,2007-12-09,23:30:08,300034012813320,72.0077,-129.0569,-1.7697,Actual,,Calculated,184.5000,Calculated,1,11
BaySys,Amundsen,2007-12-10,03:30:30,300034012813320,71.9893,-129.0845,10.2481,Actual,,Calculated,223.6500,Calculated,1,11
BaySys,Amundsen,2007-12-10,05:30:08,300034012813320,71.9820,-129.1095,-1.3292,Actual,,Calculated,241.2900,Calculated,1,7
BaySys,Amundsen,2007-12-10,07:30:07,300034012813320,71.9764,-129.1344,-1.4173,Actual,,Calculated,312.4900,Calculated,1,7
BaySys,Amundsen,2007-12-10,09:30:40,300034012813320,71.9704,-129.1546,12.3469,Actual,,Calculated,237.2400,Calculated,1,8
BaySys,Amundsen,2007-12-10,21:40:08,300034012813320,71.9355,-129.2914,-2.4980,Actual,,Calculated,184.1200,Calculated,1,8
BaySys,Amundsen,2007-12-11,01:50:16,300034012813320,71.9217,-129.3161,-2.3002,Actual,,Calculated,236.7800,Calculated,1,11
BaySys,Amundsen,2007-12-11,11:49:51,300034012813320,71.8969,-129.4335,1.0068,Actual,,Calculated,232.7900,Calculated,1,11
BaySys,Amundsen,2007-12-11,13:50:23,300034012813320,71.8917,-129.4601,2.2077,Actual,,Calculated,336.7700,Calculated,1,11
BaySys,Amundsen,2007-12-11,15:50:26,300034012813320,71.8875,-129.4949,1.4948,Actual,,Calculated,267.2300,Calculated,1,10
BaySys,Amundsen,2007-12-11,17:50:23,300034012813320,71.8854,-129.5389,-3.6583,Actual,,Calculated,255.4800,Calculated,1,9
BaySys,Amundsen,2007-12-11,19:50:11,300034012813320,71.8849,-129.5850,-4.3197,Actual,,Calculated,245.6000,Calculated,1,11
BaySys,Amundsen,2007-12-11,21:50:35,300034012813320,71.8837,-129.6223,-0.3509,Actual,,Calculated,317.9000,Calculated,1,10
BaySys,Amundsen,2007-12-11,23:50:28,300034012813320,71.8805,-129.6504,-14.6539,Actual,,Calculated,241.5000,Calculated,1,9
BaySys,Amundsen,2007-12-12,01:50:16,300034012813320,71.8761,-129.6752,-35.8786,Actual,,Calculated,241.6900,Calculated,1,12
BaySys,Amundsen,2007-12-12,03:50:27,300034012813320,71.8717,-129.7049,4.8233,Actual,,Calculated,202.4000,Calculated,1,8
BaySys,Amundsen,2007-12-12,05:50:53,300034012813320,71.8685,-129.7430,1.6243,Actual,,Calculated,84.6300,Calculated,1,9
BaySys,Amundsen,2007-12-12,07:50:42,300034012813320,71.8666,-129.7839,2.4051,Actual,,Calculated,310.7600,Calculated,1,9
BaySys,Amundsen,2007-12-12,09:50:24,300034012813320,71.8665,-129.8266,8.2069,Actual,,Calculated,259.0400,Calculated,1,9
BaySys,Amundsen,2007-12-12,11:50:59,300034012813320,71.8656,-129.8618,7.4073,Actual,,Calculated,269.7100,Calculated,1,11
BaySys,Amundsen,2007-12-12,13:50:42,300034012813320,71.8639,-129.8916,-1.1782,Actual,,Calculated,346.3700,Calculated,1,7
BaySys,Amundsen,2007-12-12,15:50:29,300034012813320,71.8625,-129.9257,0.5171,Actual,,Calculated,290.9400,Calculated,1,9
BaySys,Amundsen,2007-12-12,17:51:00,300034012813320,71.8624,-129.9665,-4.8358,Actual,,Calculated,268.4100,Calculated,1,11
BaySys,Amundsen,2007-12-12,19:50:42,300034012813320,71.8643,-130.0070,-1.7813,Actual,,Calculated,311.8700,Calculated,1,8
BaySys,Amundsen,2007-12-12,21:51:05,300034012813320,71.8667,-130.0415,-1.2181,Actual,,Calculated,308.8800,Calculated,1,8
BaySys,Amundsen,2007-12-12,23:51:29,300034012813320,71.8666,-130.0655,-7.0077,Actual,,Calculated,246.1600,Calculated,1,8
BaySys,Amundsen,2007-12-13,01:51:23,300034012813320,71.8642,-130.0847,3.5402,Actual,,Calculated,324.1600,Calculated,1,12
BaySys,Amundsen,2007-12-13,03:51:05,300034012813320,71.8623,-130.1134,8.8411,Actual,,Calculated,262.7400,Calculated,1,7
BaySys,Amundsen,2007-12-13,05:50:46,300034012813320,71.8622,-130.1492,2.9055,Actual,,Calculated,271.4700,Calculated,1,9
BaySys,Amundsen,2007-12-13,07:50:49,300034012813320,71.8632,-130.1877,-1.8496,Actual,,Calculated,271.5900,Calculated,1,11
BaySys,Amundsen,2007-12-13,09:51:23,300034012813320,71.8638,-130.2163,2.0087,Actual,,Calculated,294.9100,Calculated,1,8
BaySys,Amundsen,2007-12-13,11:51:21,300034012813320,71.8624,-130.2321,-2.1122,Actual,,Calculated,238.4000,Calculated,1,10
BaySys,Amundsen,2007-12-13,13:50:55,300034012813320,71.8584,-130.2411,-0.3839,Actual,,Calculated,181.3500,Calculated,1,10
BaySys,Amundsen,2007-12-13,15:51:24,300034012813320,71.8534,-130.2555,0.7588,Actual,,Calculated,236.8100,Calculated,1,9
BaySys,Amundsen,2007-12-13,17:51:18,300034012813320,71.8499,-130.2791,0.1890,Actual,,Calculated,251.5000,Calculated,1,9
BaySys,Amundsen,2007-12-13,19:51:02,300034012813320,71.8490,-130.3032,-1.2301,Actual,,Calculated,260.9500,Calculated,1,10